Vorticity
8 10 11 10 11 11 11 11 10 10 11 12 13 13 12 10 9 9 9 9 9 10 10 11 14 18 21 21 23 25 26 26 24 22 20 19 20 21 20 18 17 17 16 14 12 11 10 10 10 10 8 4 3 3 5 8 10 12 12 11 11 11 10 11 10 9 8 7 5
6 8 9 9 9 8 8 9 9 10 9 7 7 7 6 4 6 5 5 5 8 10 12 14 14 11 8 7 12 17 21 25 27 27 27 26 27 26 23 17 13 12 12 12 11 10 9 8 8 7 5 3 4 7 11 15 16 16 15 13 12 11 9 8 6 4 2 1 -0
5 6 6 8 7 7 7 8 5 4 5 5 4 5 5 3 7 9 9 8 9 11 13 16 11 6 2 -0 1 8 17 24 26 26 25 25 26 27 25 20 15 13 13 12 11 11 10 9 8 6 6 7 11 14 16 17 15 13 11 9 7 5 3 2 0 -1 -2 -2 -2
6 6 6 5 6 6 6 5 2 1 1 3 3 4 6 6 10 11 10 6 7 12 18 25 21 18 16 14 14 16 18 18 16 15 15 18 21 23 23 23 20 17 16 14 13 14 13 12 9 9 10 12 14 14 12 8 5 3 2 1 -0 -1 -1 -2 -2 -1 -1 -1 -0
6 7 8 8 6 5 5 5 6 5 4 6 5 4 5 8 8 6 5 8 19 26 29 27 23 21 19 18 18 19 19 18 15 11 8 9 12 14 16 17 16 15 15 14 14 13 11 8 7 8 10 10 7 4 1 -1 -2 -2 -2 -1 -1 -1 -1 -1 -0 0 1 1 2
5 7 8 8 6 7 9 14 9 2 -0 6 7 8 8 9 3 -1 -1 5 11 15 15 13 13 14 16 19 19 18 15 13 11 8 4 2 4 5 6 7 8 9 10 11 9 5 1 -2 1 3 3 0 -3 -4 -4 -3 -2 -1 -1 0 0 -0 -0 0 0 1 1 2 2
6 7 8 9 3 4 8 14 7 5 6 7 8 7 7 8 3 -2 -4 -2 -0 -2 -5 -8 -5 1 9 14 14 10 5 1 1 1 0 -0 2 3 4 5 5 6 6 3 -3 -7 -8 -5 -2 -1 -2 -4 -3 -1 1 2 1 0 -0 -0 -0 -1 -1 -0 -0 0 1 2 3
5 5 7 9 6 5 6 9 8 9 8 5 5 4 4 5 5 4 2 -1 -2 -4 -7 -13 -14 -9 -3 1 -0 -2 -3 -2 -1 -0 1 2 4 5 5 5 3 -0 -4 -11 -14 -11 -5 1 3 5 5 7 6 5 3 2 -0 -1 -2 -2 -1 -1 0 0 1 2 3 4 4
4 6 8 8 6 6 7 9 8 6 3 1 2 3 5 7 9 10 10 7 3 1 -1 -4 -6 -5 -5 -7 -10 -9 -6 -3 -3 -1 2 4 2 0 -2 -6 -10 -12 -13 -12 -6 1 8 13 14 12 9 6 2 -1 -3 -3 -3 -2 -1 -0 1 2 4 5 6 6 7 8 8
4 8 10 9 5 5 8 11 12 9 5 5 7 8 9 10 12 13 14 13 10 7 4 4 4 2 -3 -10 -13 -11 -7 -3 -4 -3 -2 -5 -8 -8 -7 -7 -5 -1 5 12 15 18 18 15 8 1 -4 -7 -8 -7 -5 -1 1 4 5 7 7 8 9 10 11 11 12 12 12
6 7 9 9 6 6 8 12 14 13 11 10 7 6 7 9 10 11 12 14 12 11 11 13 11 6 1 -5 -4 -6 -6 -1 -3 -6 -9 -11 -8 -3 2 6 10 14 17 18 15 10 3 -7 -13 -13 -9 -5 -1 2 6 10 12 13 13 14 14 14 14 14 15 15 15 15 15
4 4 5 8 8 8 8 13 14 12 7 3 1 0 1 3 5 8 11 13 13 13 12 14 8 3 -1 -5 -6 -7 -5 0 -2 -4 -5 -1 4 7 9 11 13 12 9 4 1 -4 -10 -15 -11 -3 6 10 13 15 17 18 19 18 18 17 17 17 17 16 16 17 17 17 16
2 3 4 6 10 11 11 12 11 5 -1 -5 -3 -3 -2 0 5 9 11 11 8 5 1 -4 -6 -9 -10 -8 -5 -1 3 5 6 7 9 10 8 6 4 4 2 -0 -3 -7 -10 -11 -8 -2 7 14 18 19 21 21 21 20 20 19 19 18 18 18 17 17 17 17 16 16 16
0 1 2 5 9 12 13 12 6 -0 -4 -1 4 3 -0 -2 -0 1 1 0 -2 -3 -5 -9 -6 -6 -6 -4 1 4 6 5 7 8 8 6 3 1 -1 -3 -4 -3 -1 -0 1 6 13 19 21 22 22 21 21 21 20 19 19 18 17 17 16 16 16 16 15 15 14 14 14
-1 -1 0 3 7 10 12 11 6 1 -1 3 4 4 2 -2 -4 -5 -5 -4 -4 -4 -3 -1 1 1 2 4 5 6 5 2 1 1 1 1 2 2 3 4 8 11 13 15 18 21 24 24 24 22 21 19 18 17 16 16 15 15 14 14 13 13 12 12 12 11 11 11 11
0 -1 -1 -0 3 6 8 8 7 4 2 2 4 5 5 4 2 -1 -2 -3 -4 -3 -1 2 3 5 6 7 6 6 5 3 -0 -1 -1 0 3 7 10 13 16 18 19 20 21 21 22 21 19 17 16 15 13 12 12 11 11 10 10 10 9 9 8 8 8 8 9 9 9
2 1 -0 -1 -0 1 3 5 6 6 5 5 4 4 4 4 3 1 -0 -1 -1 0 3 6 7 8 8 8 7 7 6 5 3 3 4 7 9 12 14 16 16 17 17 18 17 17 16 14 12 11 10 9 9 8 8 7 7 7 6 6 6 6 6 7 7 7 7 8 8
5 4 3 1 -0 -0 0 1 3 4 5 6 4 3 3 2 2 3 3 4 5 6 8 11 12 12 11 10 9 8 6 6 7 9 10 12 13 14 14 15 16 16 16 15 14 12 11 9 7 7 6 6 6 5 5 5 5 5 6 6 6 6 7 7 7 8 8 8 9
9 8 7 6 4 2 1 1 1 2 3 4 3 3 3 4 6 7 8 10 11 12 13 14 15 14 13 11 9 8 8 10 11 13 14 15 15 15 16 16 16 15 14 11 9 8 7 6 5 5 5 5 5 5 5 5 6 6 6 7 7 8 8 8 9 9 9 9 10
14 14 13 12 10 7 4 3 2 3 3 3 4 5 7 10 12 13 13 13 15 15 15 15 14 13 12 10 10 11 12 15 15 16 16 16 17 17 17 16 13 11 8 7 6 5 5 5 5 5 5 5 5 5 6 6 6 7 7 8 8 8 9 9 9 10 10 10 11
18 18 18 18 16 13 10 7 6 5 5 6 8 11 14 17 19 19 18 17 17 16 15 14 12 12 11 12 13 15 16 17 17 17 16 16 16 14 12 10 7 6 5 5 5 5 5 5 5 5 5 5 6 6 6 7 7 7 8 8 9 9 10 10 10 11 11 11 12
20 21 22 22 20 18 16 15 14 12 11 11 14 18 21 23 22 22 20 18 17 16 15 14 13 14 14 16 17 17 17 16 16 16 14 12 10 8 6 5 5 4 4 4 4 4 4 4 4 5 5 5 6 7 7 8 8 8 9 9 10 10 11 11 11 12 12 12 12
21 22 23 23 23 22 22 22 22 20 18 17 18 20 21 21 20 19 18 18 17 17 17 17 18 18 19 19 19 17 16 15 13 11 9 7 6 5 4 4 4 4 4 4 4 4 4 4 5 5 6 6 7 8 8 9 9 10 10 10 11 12 12 12 13 13 13 13 13
23 23 23 23 23 23 24 24 24 23 21 20 18 18 17 17 18 19 19 20 21 22 22 22 22 22 21 19 16 14 12 9 7 6 5 4 4 4 4 4 4 4 4 4 4 4 5 5 6 6 7 8 8 9 9 10 10 11 11 12 13 13 14 14 14 14 14 14 14
25 25 25 24 24 23 23 23 22 21 20 19 17 16 16 18 21 23 24 25 25 25 24 22 20 18 15 12 9 7 6 5 5 4 4 4 4 4 3 3 4 4 4 4 5 5 6 6 7 7 8 8 9 10 10 11 12 12 13 13 14 14 15 15 16 16 16 15 15
27 27 27 27 26 26 25 24 22 21 19 18 18 19 21 23 24 25 24 23 22 19 17 14 11 9 7 6 5 4 4 4 4 4 4 3 3 3 4 4 4 4 5 5 6 6 7 7 8 8 9 9 10 11 11 12 13 13 14 14 15 15 15 16 16 16 16 16 16
24 25 26 27 27 27 27 25 24 22 22 22 23 24 24 24 22 20 17 15 12 10 8 6 5 5 4 4 4 4 4 4 3 3 3 3 3 4 4 4 5 5 6 6 7 7 8 8 9 9 10 10 11 12 12 12 13 13 13 14 14 14 14 14 14 15 15 15 15
16 18 19 21 22 22 22 22 22 21 21 21 21 20 19 16 14 11 9 7 6 5 4 4 4 4 4 4 4 4 3 3 3 3 3 3 4 4 4 5 5 6 6 7 7 8 8 9 9 10 10 11 11 12 12 12 12 12 12 12 12 12 12 12 12 12 13 13 14
10 10 11 12 13 13 14 14 14 14 14 13 12 11 9 8 6 5 5 4 4 4 4 4 4 4 4 3 3 3 3 3 3 3 4 4 4 5 5 6 6 7 7 8 8 9 9 9 9 10 10 10 10 10 10 10 10 10 10 9 9 9 9 9 9 10 10 11 12
7 7 7 7 7 7 7 7 8 7 7 7 6 5 5 4 4 4 4 4 4 4 4 4 4 4 3 3 3 3 3 3 3 4 4 4 5 6 6 7 7 7 7 8 8 9 9 9 9 9 9 9 9 9 9 8 8 8 7 7 6 6 6 7 7 8 9 10 11
7 7 6 6 6 6 6 6 6 5 5 5 5 5 5 5 5 5 5 5 4 4 4 4 4 4 3 3 3 3 3 3 4 4 5 6 6 7 7 7 6 7 7 8 8 8 9 9 9 9 9 9 8 8 7 7 6 5 5 5 5 5 5 6 7 8 9 10 11
7 7 7 7 7 7 7 6 6 6 6 6 6 6 6 5 5 5 5 5 4 4 4 4 4 3 3 3 3 3 3 4 5 5 6 7 7 7 6 6 6 6 7 8 8 9 9 9 8 8 8 8 7 7 6 6 5 4 4 4 4 5 5 6 7 9 10 12 13
8 8 8 8 8 8 8 7 7 7 7 6 6 6 6 6 5 5 5 4 4 4 4 4 4 4 3 3 3 4 4 5 6 6 7 7 7 6 5 5 6 6 7 8 8 8 8 8 8 7 7 7 6 6 6 5 5 5 5 5 5 5 6 7 8 10 12 14 15
9 9 9 9 8 8 8 8 7 7 7 6 6 6 6 5 5 5 4 4 4 4 4 4 4 4 4 4 4 4 5 6 7 7 7 7 6 5 5 5 6 7 8 8 8 8 7 7 7 6 6 6 6 6 6 7 6 6 6 6 6 7 7 9 10 12 14 16 16
9 9 9 9 9 8 8 8 7 7 6 6 6 5 5 5 5 4 4 4 4 4 4 4 4 4 4 5 5 5 6 6 7 7 7 6 6 5 5 6 6 7 7 7 7 7 7 7 7 7 7 7 7 8 8 8 8 8 8 8 8 8 9 11 13 15 16 17 17
9 9 9 9 8 8 8 7 7 6 6 6 5 5 5 5 4 4 4 4 4 4 4 4 4 4 5 5 6 6 7 7 7 6 6 6 5 5 6 6 6 6 7 7 7 7 8 8 8 9 9 9 9 10 10 10 10 10 9 9 9 10 11 13 15 17 18 18 17
8 8 8 8 8 7 7 7 6 6 6 5 5 5 5 5 4 4 4 4 4 4 4 5 5 5 6 6 7 7 7 7 6 6 5 5 5 5 6 6 6 7 7 8 9 9 10 11 11 11 12 12 12 12 12 11 11 11 11 11 11 12 14 16 17 18 18 17 16
8 7 7 7 7 7 6 6 6 6 6 5 5 5 5 5 5 5 5 5 5 5 5 5 6 6 7 7 7 7 6 6 6 5 5 5 6 6 6 7 8 9 10 11 11 12 13 13 14 14 14 13 13 13 12 12 12 12 12 13 14 15 17 18 19 19 17 15 12
7 7 7 6 6 6 6 6 6 6 6 6 6 6 6 5 5 5 5 5 5 6 6 6 7 7 7 7 6 6 6 6 6 5 5 6 6 7 8 9 10 11 12 13 14 14 15 15 15 15 14 14 14 13 13 13 13 13 14 15 16 17 19 20 19 17 14 11 9
7 7 7 7 7 7 6 6 6 6 6 6 6 6 6 6 6 6 6 6 6 6 7 7 7 7 7 6 6 6 6 6 6 6 6 7 8 9 10 11 12 13 14 14 15 15 15 15 15 15 14 14 14 13 13 14 14 15 16 17 18 19 19 19 17 14 11 8 7
8 7 7 7 7 7 7 7 7 7 7 7 7 7 6 6 6 6 6 6 7 7 7 7 7 7 6 6 6 6 6 6 6 6 7 8 10 11 12 13 13 13 13 14 14 14 14 14 14 14 14 14 14 14 14 15 15 16 17 19 19 19 17 15 13 10 9 8 9
Height
5756 5757 5759 5761 5762 5763 5764 5765 5765 5765 5764 5762 5764 5763 5762 5763 5764 5765 5765 5765 5765 5765 5765 5766 5766 5766 5765 5765 5765 5766 5767 5768 5769 5769 5770 5770 5770 5771 5772 5773 5774 5774 5773 5773 5773 5774 5773 5772 5772 5772 5773 5773 5774 5774 5774 5774 5774 5773 5773 5773 5773 5772 5772 5772 5771 5771 5770 5770 5769
5755 5757 5759 5760 5760 5760 5760 5762 5762 5761 5760 5759 5759 5759 5759 5760 5761 5762 5763 5763 5762 5762 5762 5763 5763 5765 5766 5765 5764 5764 5765 5765 5766 5766 5767 5767 5768 5768 5769 5770 5770 5771 5772 5772 5773 5772 5770 5770 5770 5770 5770 5770 5770 5770 5770 5770 5770 5770 5770 5770 5770 5770 5769 5769 5769 5768 5768 5767 5766
5753 5755 5756 5758 5758 5758 5758 5759 5757 5755 5755 5757 5757 5757 5758 5758 5759 5760 5760 5760 5760 5760 5760 5760 5760 5760 5761 5761 5761 5762 5763 5764 5764 5764 5764 5765 5765 5766 5766 5767 5768 5770 5773 5776 5772 5767 5766 5767 5767 5767 5767 5766 5766 5766 5766 5766 5767 5767 5767 5766 5766 5766 5766 5766 5765 5765 5765 5764 5763
5751 5752 5753 5754 5755 5756 5756 5754 5754 5754 5753 5754 5754 5755 5755 5756 5756 5757 5758 5758 5759 5758 5757 5757 5757 5758 5759 5759 5759 5760 5761 5762 5762 5762 5761 5761 5762 5763 5764 5765 5765 5767 5769 5770 5765 5764 5765 5765 5764 5764 5764 5763 5763 5763 5763 5763 5764 5764 5764 5764 5763 5763 5763 5762 5762 5762 5761 5760 5760
5748 5749 5750 5751 5752 5754 5755 5755 5753 5752 5751 5751 5753 5753 5753 5753 5754 5755 5757 5757 5757 5757 5756 5755 5756 5756 5757 5757 5757 5758 5759 5759 5759 5758 5758 5758 5759 5760 5761 5761 5762 5763 5763 5762 5762 5762 5762 5762 5762 5761 5761 5763 5760 5760 5760 5760 5761 5761 5761 5760 5760 5760 5760 5759 5759 5758 5758 5757 5756
5745 5746 5747 5748 5748 5748 5750 5755 5756 5752 5749 5749 5750 5750 5750 5750 5751 5752 5753 5753 5754 5753 5753 5754 5754 5754 5754 5754 5755 5755 5755 5756 5756 5755 5755 5755 5756 5757 5758 5759 5759 5759 5760 5760 5760 5759 5759 5759 5759 5758 5757 5756 5757 5757 5757 5758 5758 5758 5757 5757 5757 5756 5756 5755 5755 5755 5754 5753 5753
5741 5742 5744 5745 5744 5743 5744 5749 5750 5748 5746 5746 5746 5747 5747 5748 5748 5748 5748 5748 5749 5750 5750 5750 5751 5751 5751 5752 5752 5753 5753 5753 5753 5753 5752 5753 5753 5754 5755 5755 5756 5756 5757 5757 5757 5757 5756 5755 5755 5755 5754 5754 5754 5754 5754 5755 5755 5754 5754 5754 5753 5753 5752 5752 5751 5751 5750 5750 5749
5737 5739 5740 5740 5741 5741 5741 5743 5742 5743 5744 5742 5742 5743 5744 5744 5745 5745 5745 5745 5745 5745 5746 5747 5748 5748 5748 5749 5750 5750 5751 5751 5751 5751 5750 5751 5751 5751 5752 5752 5753 5753 5754 5754 5754 5754 5753 5752 5752 5751 5751 5751 5751 5751 5751 5751 5751 5751 5750 5750 5750 5749 5749 5748 5747 5747 5746 5746 5745
5734 5735 5736 5737 5737 5737 5737 5738 5740 5741 5740 5737 5737 5739 5740 5741 5741 5742 5742 5742 5742 5742 5743 5743 5744 5744 5745 5746 5747 5748 5749 5749 5749 5749 5749 5749 5748 5749 5749 5750 5750 5750 5750 5750 5750 5750 5749 5749 5748 5748 5748 5748 5748 5748 5748 5748 5748 5747 5747 5746 5745 5745 5744 5744 5743 5743 5742 5742 5741
5730 5731 5733 5733 5733 5732 5732 5734 5735 5736 5735 5733 5735 5735 5736 5738 5739 5739 5739 5739 5739 5740 5740 5740 5740 5740 5741 5742 5743 5745 5745 5745 5745 5745 5745 5745 5745 5746 5746 5746 5747 5747 5747 5747 5747 5746 5745 5744 5744 5744 5744 5745 5745 5745 5744 5744 5744 5743 5742 5742 5741 5741 5740 5740 5739 5739 5738 5738 5737
5727 5728 5729 5730 5729 5728 5728 5730 5731 5731 5731 5732 5732 5732 5734 5735 5736 5736 5736 5736 5736 5736 5736 5737 5737 5738 5738 5738 5739 5743 5746 5744 5743 5741 5741 5743 5742 5741 5742 5743 5743 5743 5743 5743 5744 5744 5742 5740 5740 5740 5740 5740 5740 5740 5740 5739 5739 5739 5738 5738 5737 5737 5736 5735 5735 5735 5735 5734 5733
5723 5725 5725 5725 5725 5725 5725 5726 5728 5728 5729 5730 5731 5731 5732 5733 5734 5733 5733 5733 5735 5734 5733 5735 5735 5736 5735 5733 5735 5740 5742 5739 5738 5737 5736 5736 5737 5737 5738 5738 5738 5739 5739 5740 5740 5739 5737 5736 5736 5737 5736 5736 5736 5735 5735 5735 5735 5734 5734 5734 5733 5733 5732 5732 5731 5731 5730 5730 5730
5720 5721 5721 5722 5722 5722 5722 5723 5724 5726 5729 5732 5734 5733 5732 5733 5732 5731 5730 5730 5732 5730 5730 5732 5732 5731 5731 5729 5730 5731 5731 5731 5732 5732 5732 5732 5732 5733 5734 5734 5734 5735 5735 5735 5735 5735 5734 5733 5733 5732 5732 5732 5731 5731 5731 5731 5730 5730 5730 5730 5730 5729 5729 5728 5727 5727 5726 5726 5725
5716 5717 5718 5719 5719 5719 5719 5720 5720 5723 5727 5733 5732 5728 5725 5728 5728 5728 5729 5728 5726 5725 5726 5727 5728 5727 5726 5725 5726 5726 5727 5727 5727 5727 5727 5728 5728 5729 5730 5730 5730 5730 5730 5730 5730 5730 5730 5729 5729 5728 5728 5728 5727 5727 5727 5727 5727 5727 5726 5726 5726 5725 5725 5725 5724 5723 5723 5722 5722
5712 5713 5714 5715 5716 5716 5717 5717 5718 5719 5720 5721 5720 5719 5719 5721 5722 5723 5723 5722 5721 5721 5722 5723 5723 5722 5722 5722 5722 5723 5724 5724 5724 5723 5724 5724 5725 5725 5726 5725 5725 5726 5726 5726 5726 5726 5725 5725 5725 5725 5724 5724 5724 5724 5724 5724 5723 5723 5723 5723 5722 5722 5721 5721 5720 5720 5720 5719 5718
5708 5709 5710 5711 5712 5713 5714 5714 5714 5715 5715 5715 5715 5715 5716 5717 5718 5719 5719 5719 5718 5718 5718 5719 5719 5719 5719 5719 5720 5720 5721 5721 5720 5720 5720 5720 5721 5721 5721 5721 5721 5722 5722 5722 5722 5722 5721 5721 5721 5721 5721 5721 5721 5720 5720 5720 5720 5720 5719 5719 5719 5719 5718 5718 5717 5717 5716 5715 5715
5704 5705 5706 5707 5708 5709 5710 5710 5711 5711 5712 5712 5712 5712 5713 5714 5714 5715 5715 5715 5715 5715 5715 5715 5715 5715 5716 5716 5716 5717 5717 5717 5717 5717 5717 5717 5717 5718 5718 5718 5718 5719 5719 5719 5719 5718 5718 5718 5718 5718 5718 5718 5717 5717 5717 5717 5716 5716 5716 5716 5715 5715 5715 5714 5714 5713 5713 5712 5711
5700 5701 5702 5703 5704 5705 5706 5706 5707 5708 5708 5709 5709 5709 5710 5710 5710 5710 5711 5711 5711 5711 5711 5711 5712 5712 5713 5713 5713 5714 5714 5715 5715 5715 5715 5715 5715 5715 5715 5715 5715 5715 5715 5715 5715 5715 5715 5715 5715 5715 5715 5715 5714 5714 5714 5713 5713 5713 5713 5712 5712 5712 5711 5710 5710 5710 5709 5708 5707
5696 5697 5698 5699 5700 5701 5702 5703 5704 5704 5705 5705 5705 5706 5706 5706 5706 5707 5707 5707 5708 5708 5708 5708 5709 5709 5710 5710 5710 5711 5711 5712 5712 5712 5712 5712 5712 5712 5712 5712 5712 5712 5712 5712 5712 5712 5712 5712 5712 5711 5711 5711 5711 5711 5710 5710 5710 5710 5709 5709 5708 5708 5707 5707 5706 5705 5705 5704 5703
5692 5693 5694 5695 5696 5697 5698 5699 5700 5700 5701 5701 5702 5702 5702 5703 5703 5703 5704 5704 5705 5705 5705 5705 5706 5706 5707 5707 5708 5708 5709 5709 5709 5709 5709 5709 5710 5710 5710 5710 5710 5710 5710 5709 5709 5709 5709 5709 5709 5708 5708 5708 5708 5707 5707 5707 5706 5706 5705 5705 5705 5704 5703 5703 5702 5701 5701 5700 5700
5689 5689 5690 5690 5692 5693 5694 5695 5696 5697 5697 5698 5698 5699 5699 5699 5700 5700 5700 5701 5701 5702 5703 5703 5703 5704 5704 5705 5705 5705 5705 5706 5706 5706 5706 5706 5706 5706 5707 5707 5707 5706 5706 5706 5706 5706 5706 5706 5705 5705 5705 5705 5704 5704 5704 5703 5703 5702 5701 5701 5700 5700 5699 5699 5698 5697 5697 5696 5695
5685 5685 5686 5687 5688 5689 5690 5690 5691 5692 5693 5694 5695 5695 5696 5696 5696 5697 5697 5698 5698 5699 5700 5700 5700 5701 5701 5702 5702 5703 5703 5703 5703 5703 5703 5703 5703 5704 5704 5704 5704 5704 5704 5703 5703 5703 5703 5703 5702 5702 5702 5701 5701 5700 5700 5699 5699 5698 5697 5697 5696 5696 5695 5695 5694 5693 5693 5692 5691
5681 5682 5682 5683 5684 5685 5685 5686 5687 5688 5689 5690 5691 5692 5692 5693 5693 5694 5694 5695 5695 5696 5696 5697 5698 5698 5699 5699 5700 5700 5700 5700 5700 5700 5700 5700 5701 5701 5701 5701 5701 5701 5701 5700 5700 5700 5700 5700 5699 5699 5698 5698 5697 5696 5696 5695 5695 5694 5693 5693 5692 5692 5691 5690 5690 5689 5688 5688 5687
5677 5678 5679 5679 5680 5681 5682 5683 5683 5684 5685 5686 5687 5688 5689 5690 5690 5691 5691 5692 5692 5693 5694 5694 5695 5696 5696 5697 5697 5697 5697 5697 5697 5697 5698 5698 5698 5698 5698 5698 5698 5698 5698 5697 5697 5697 5696 5696 5696 5695 5695 5694 5694 5693 5692 5691 5691 5690 5690 5689 5688 5688 5687 5686 5686 5685 5684 5684 5683
5674 5674 5675 5676 5676 5677 5678 5679 5680 5680 5681 5682 5684 5685 5686 5686 5687 5688 5688 5689 5690 5690 5691 5692 5692 5693 5693 5694 5694 5694 5694 5695 5695 5695 5695 5695 5695 5695 5695 5695 5695 5695 5695 5694 5694 5694 5693 5692 5692 5691 5691 5690 5690 5689 5688 5688 5687 5686 5685 5685 5684 5684 5683 5682 5682 5681 5680 5680 5679
5670 5671 5671 5672 5673 5674 5675 5675 5676 5677 5678 5679 5680 5681 5682 5683 5684 5685 5685 5686 5687 5687 5688 5689 5689 5690 5690 5690 5691 5691 5691 5692 5692 5692 5693 5693 5693 5693 5692 5692 5692 5691 5691 5691 5690 5690 5689 5689 5688 5688 5687 5686 5686 5685 5685 5684 5683 5682 5682 5681 5680 5680 5680 5679 5678 5677 5677 5676 5675
5667 5668 5668 5669 5670 5670 5671 5672 5673 5674 5675 5676 5677 5678 5679 5680 5681 5682 5683 5683 5684 5685 5685 5686 5686 5687 5687 5688 5688 5688 5689 5689 5690 5690 5690 5690 5690 5689 5689 5689 5688 5688 5688 5687 5687 5686 5686 5685 5685 5684 5683 5683 5682 5681 5680 5680 5679 5679 5678 5678 5677 5676 5676 5675 5675 5674 5673 5672 5672
5664 5665 5665 5666 5667 5667 5668 5669 5670 5671 5672 5673 5674 5675 5676 5677 5678 5679 5680 5680 5681 5681 5682 5683 5683 5684 5684 5685 5685 5685 5686 5686 5687 5687 5687 5686 5686 5686 5685 5685 5685 5685 5684 5684 5683 5683 5682 5681 5680 5680 5680 5679 5678 5677 5676 5676 5675 5675 5674 5674 5673 5673 5672 5671 5671 5670 5670 5669 5668
5661 5662 5663 5663 5664 5665 5665 5666 5667 5668 5669 5670 5671 5672 5673 5674 5675 5676 5676 5677 5678 5679 5679 5680 5680 5681 5681 5682 5682 5683 5683 5683 5683 5683 5683 5683 5683 5682 5682 5682 5681 5681 5681 5680 5680 5679 5678 5677 5677 5676 5676 5675 5675 5674 5673 5672 5671 5671 5671 5670 5670 5669 5669 5668 5667 5667 5666 5665 5665
5659 5659 5660 5661 5661 5662 5663 5664 5665 5665 5666 5667 5668 5670 5670 5671 5672 5673 5674 5675 5675 5676 5676 5677 5677 5678 5678 5679 5679 5680 5680 5680 5680 5680 5680 5679 5679 5679 5678 5678 5678 5677 5677 5677 5676 5675 5675 5674 5673 5673 5672 5672 5671 5670 5670 5669 5668 5668 5667 5667 5666 5666 5665 5664 5664 5663 5662 5662 5661
5656 5657 5657 5658 5659 5660 5660 5661 5662 5663 5664 5665 5666 5667 5668 5669 5669 5670 5671 5671 5672 5673 5673 5674 5675 5675 5675 5675 5676 5676 5676 5676 5676 5676 5676 5676 5675 5675 5675 5674 5674 5674 5673 5673 5672 5672 5671 5670 5670 5669 5669 5668 5668 5667 5666 5665 5665 5665 5664 5663 5663 5662 5661 5661 5660 5660 5659 5658 5658
5653 5654 5655 5655 5656 5657 5658 5659 5660 5660 5661 5662 5663 5664 5665 5665 5666 5667 5668 5669 5669 5670 5670 5671 5671 5672 5672 5672 5673 5673 5673 5673 5673 5673 5672 5672 5672 5671 5671 5670 5670 5670 5670 5669 5669 5668 5667 5667 5666 5665 5665 5664 5664 5664 5663 5662 5662 5661 5660 5660 5659 5658 5658 5657 5656 5656 5655 5655 5654
5650 5651 5652 5653 5654 5654 5655 5656 5657 5658 5659 5660 5660 5661 5662 5663 5663 5664 5665 5665 5666 5667 5667 5668 5668 5669 5669 5669 5669 5669 5669 5669 5669 5669 5669 5668 5668 5667 5667 5666 5666 5666 5666 5666 5665 5665 5664 5663 5662 5662 5661 5660 5660 5660 5660 5659 5658 5658 5657 5656 5655 5655 5654 5653 5653 5652 5652 5651 5650
5647 5648 5649 5650 5650 5651 5652 5653 5654 5655 5656 5656 5657 5658 5659 5660 5660 5661 5662 5662 5663 5664 5664 5664 5665 5665 5665 5665 5665 5665 5665 5665 5665 5665 5665 5665 5664 5664 5663 5663 5663 5663 5663 5662 5661 5661 5660 5660 5659 5658 5657 5657 5656 5656 5656 5655 5655 5654 5653 5653 5652 5651 5650 5650 5649 5649 5648 5647 5647
5644 5645 5646 5647 5648 5649 5649 5650 5651 5652 5653 5653 5654 5655 5655 5656 5657 5658 5658 5659 5660 5660 5660 5661 5661 5661 5661 5661 5662 5662 5662 5662 5662 5662 5661 5661 5661 5660 5660 5660 5659 5659 5659 5659 5658 5657 5656 5656 5655 5654 5654 5653 5653 5653 5652 5652 5651 5650 5650 5649 5648 5647 5647 5646 5645 5645 5645 5644 5643
5641 5642 5643 5644 5645 5645 5646 5647 5648 5649 5650 5650 5651 5651 5652 5653 5654 5654 5655 5656 5656 5657 5657 5657 5658 5658 5658 5658 5658 5658 5658 5658 5658 5658 5658 5658 5657 5657 5656 5656 5655 5655 5655 5655 5654 5653 5653 5652 5651 5650 5650 5650 5649 5649 5649 5648 5647 5646 5646 5645 5644 5644 5643 5643 5642 5641 5641 5640 5640
5638 5639 5640 5640 5641 5642 5643 5644 5645 5645 5646 5647 5647 5648 5649 5650 5650 5651 5652 5653 5653 5654 5654 5654 5655 5655 5655 5655 5655 5655 5655 5655 5655 5655 5654 5654 5654 5653 5653 5652 5652 5652 5651 5651 5650 5650 5649 5648 5647 5647 5646 5646 5645 5645 5645 5644 5643 5643 5642 5641 5641 5640 5640 5639 5639 5638 5637 5637 5636
5635 5636 5637 5638 5638 5639 5640 5641 5641 5642 5643 5643 5644 5645 5646 5646 5647 5648 5649 5650 5650 5650 5650 5651 5651 5651 5651 5651 5651 5651 5651 5651 5651 5651 5650 5650 5650 5650 5650 5649 5648 5648 5648 5647 5646 5646 5645 5644 5644 5643 5642 5642 5641 5641 5641 5640 5640 5639 5638 5638 5637 5637 5636 5635 5635 5635 5634 5634 5633
5632 5633 5634 5635 5635 5636 5637 5637 5638 5639 5640 5640 5641 5642 5642 5643 5644 5645 5645 5646 5647 5647 5647 5647 5648 5648 5648 5648 5648 5648 5648 5647 5647 5647 5647 5647 5646 5646 5646 5645 5644 5644 5644 5643 5643 5642 5641 5640 5640 5639 5639 5638 5638 5637 5637 5636 5636 5635 5635 5634 5634 5633 5633 5632 5632 5631 5631 5630 5630
5629 5630 5630 5631 5632 5633 5633 5634 5635 5635 5636 5637 5638 5639 5639 5640 5641 5641 5642 5643 5643 5643 5644 5644 5644 5644 5644 5644 5644 5644 5644 5644 5644 5644 5643 5643 5643 5642 5642 5641 5640 5640 5640 5640 5639 5638 5638 5637 5636 5635 5635 5634 5634 5634 5633 5633 5632 5632 5631 5631 5630 5630 5630 5629 5629 5628 5628 5627 5627
5626 5626 5627 5628 5629 5629 5630 5631 5631 5632 5633 5634 5635 5635 5636 5637 5638 5638 5639 5639 5640 5640 5640 5640 5640 5640 5640 5640 5640 5640 5640 5640 5640 5640 5640 5640 5639 5638 5638 5637 5636 5636 5636 5636 5635 5635 5634 5634 5633 5632 5631 5630 5630 5630 5630 5629 5629 5629 5628 5628 5627 5627 5626 5626 5625 5625 5624 5624 5623